DW7177 Weather Reports


time (UTC)temp
C
wind
direction
speed
KPH
gust
KPH
rain 1hr
cm
rain 24hr
cm
rain mn
cm
humidity
%
barometer
mb
20260508122403 13 217 1.6 9.7 0.00 0.00 0.00 69 1016.9
20260508122003 13 217 3.2 12.9 0.00 0.00 0.00 69 1016.9
20260508121603 13 218 1.6 12.9 0.00 0.00 0.00 67 1016.9
20260508121203 13 218 3.2 16.1 0.00 0.00 0.00 67 1016.9
20260508120803 13 218 3.2 16.1 0.00 0.00 0.00 65 1016.8
20260508120403 14 219 3.2 16.1 0.00 0.00 0.00 62 1016.8
20260508120003 14 220 3.2 12.9 0.00 0.00 0.00 60 1016.7
20260508115603 15 220 1.6 11.3 0.00 0.00 0.00 62 1016.7
20260508115203 15 220 3.2 16.1 0.00 0.00 0.00 62 1016.6
20260508114803 15 221 3.2 17.7 0.00 0.00 0.00 61 1016.6
20260508114403 15 221 4.8 22.5 0.00 0.00 0.00 61 1016.6
20260508114217 15 222 4.8 22.5 0.00 0.00 0.00 61 1016.6
20260508113603 15 223 3.2 22.5 0.00 0.00 0.00 62 1016.6
20260508113203 15 222 3.2 12.9 0.00 0.00 0.00 60 1016.6
20260508113018 15 222 3.2 12.9 0.00 0.00 0.00 59 1016.6
20260508112403 15 220 1.6 11.3 0.00 0.00 0.00 60 1016.5
20260508112003 15 220 1.6 11.3 0.00 0.00 0.00 60 1016.4
20260508111603 15 220 1.6 4.8 0.00 0.00 0.00 59 1016.4
20260508111203 16 220 1.6 9.7 0.00 0.00 0.00 59 1016.5
20260508110803 16 220 3.2 9.7 0.00 0.00 0.00 58 1016.4
20260508110403 16 220 3.2 9.7 0.00 0.00 0.00 56 1016.4
20260508110217 16 220 3.2 9.7 0.00 0.00 0.00 56 1016.4
20260508105603 17 219 3.2 16.1 0.00 0.00 0.00 57 1016.3
20260508105417 17 219 3.2 16.1 0.00 0.00 0.00 58 1016.3
20260508105018 16 219 3.2 14.5 0.00 0.00 0.00 61 1016.3
20260508104403 16 219 3.2 14.5 0.00 0.00 0.00 61 1016.3
20260508104003 15 219 3.2 9.7 0.00 0.00 0.00 61 1016.3
20260508103603 15 219 3.2 9.7 0.00 0.00 0.00 59 1016.4
20260508103203 15 219 3.2 11.3 0.00 0.00 0.00 59 1016.4
20260508102803 15 220 4.8 11.3 0.00 0.00 0.00 59 1016.4
20260508102403 16 224 4.8 16.1 0.00 0.00 0.00 58 1016.4
20260508102003 16 227 4.8 16.1 0.00 0.00 0.00 58 1016.4
20260508101603 16 229 3.2 14.5 0.00 0.00 0.00 60 1016.4
20260508101203 16 230 3.2 12.9 0.00 0.00 0.00 59 1016.4
20260508100803 16 230 1.6 12.9 0.00 0.00 0.00 60 1016.4
20260508100403 15 230 1.6 11.3 0.00 0.00 0.00 61 1016.4
20260508100003 15 230 3.2 11.3 0.00 0.00 0.00 62 1016.4
20260508095603 15 230 3.2 12.9 0.00 0.00 0.00 62 1016.4
20260508095417 15 230 3.2 12.9 0.00 0.00 0.00 63 1016.4
20260508094803 15 229 3.2 11.3 0.00 0.00 0.00 64 1016.4
20260508094403 14 229 3.2 11.3 0.00 0.00 0.00 64 1016.4
20260508094003 14 229 3.2 11.3 0.00 0.00 0.00 65 1016.4
20260508093817 14 230 3.2 11.3 0.00 0.00 0.00 64 1016.3
20260508093203 14 228 3.2 12.9 0.00 0.00 0.00 65 1016.3
20260508092803 15 227 1.6 12.9 0.00 0.00 0.00 65 1016.3
20260508092403 14 227 1.6 11.3 0.00 0.00 0.00 65 1016.2
20260508092218 14 227 1.6 11.3 0.00 0.00 0.00 66 1016.3
20260508091603 13 227 1.6 9.7 0.00 0.00 0.00 68 1016.3
20260508091417 13 227 1.6 9.7 0.00 0.00 0.00 66 1016.3
20260508090803 13 227 1.6 6.4 0.00 0.00 0.00 67 1016.4
20260508090403 13 227 1.6 6.4 0.00 0.00 0.00 68 1016.4
20260508090003 13 227 0.0 6.4 0.00 0.00 0.00 68 1016.4
20260508085603 13 227 0.0 8.0 0.00 0.00 0.00 70 1016.4
20260508085417 12 227 0.0 8.0 0.00 0.00 0.00 71 1016.4
20260508084803 12 227 0.0 8.0 0.00 0.00 0.00 70 1016.3
20260508084403 12 227 1.6 8.0 0.00 0.00 0.00 70 1016.4
20260508084003 12 227 1.6 11.3 0.00 0.00 0.00 71 1016.4
20260508083603 12 227 1.6 11.3 0.00 0.00 0.00 71 1016.4
20260508083203 12 228 1.6 11.3 0.00 0.00 0.00 70 1016.3
20260508082803 12 228 1.6 9.7 0.00 0.00 0.00 72 1016.3
20260508082617 12 228 3.2 12.9 0.00 0.00 0.00 72 1016.3
20260508082003 12 227 3.2 12.9 0.00 0.00 0.00 71 1016.3
20260508081603 12 226 3.2 14.5 0.00 0.00 0.00 72 1016.3
20260508081203 12 226 1.6 14.5 0.00 0.00 0.00 73 1016.3
20260508080803 12 227 3.2 14.5 0.00 0.00 0.00 72 1016.2
20260508080403 12 227 3.2 9.7 0.00 0.00 0.00 73 1016.2
20260508080004 11 227 3.2 14.5 0.00 0.00 0.00 74 1016.2
20260508075818 11 226 4.8 14.5 0.00 0.00 0.00 74 1016.2
20260508075203 11 225 3.2 12.9 0.00 0.00 0.00 74 1016.2
20260508074803 11 225 1.6 12.9 0.00 0.00 0.00 75 1016.2
20260508074403 11 224 1.6 12.9 0.00 0.00 0.00 75 1016.2
20260508074003 11 224 1.6 8.0 0.00 0.00 0.00 75 1016.2
20260508073603 11 224 1.6 8.0 0.00 0.00 0.00 77 1016.1
20260508073203 11 224 1.6 6.4 0.00 0.00 0.00 77 1016.1
20260508072803 11 224 1.6 4.8 0.00 0.00 0.00 78 1016.1
20260508072403 11 224 1.6 11.3 0.00 0.00 0.00 79 1016.1
20260508072003 10 224 1.6 11.3 0.00 0.00 0.00 80 1016.0
20260508071603 10 224 1.6 11.3 0.00 0.00 0.00 81 1016.1
20260508071418 10 224 3.2 11.3 0.00 0.00 0.00 81 1016.1
20260508071018 10 224 3.2 11.3 0.00 0.00 0.00 81 1015.9
20260508070617 10 224 1.6 9.7 0.00 0.00 0.00 83 1016.0
20260508070003 9 224 1.6 4.8 0.00 0.00 0.00 85 1015.9
20260508065603 9 224 1.6 8.0 0.00 0.00 0.00 87 1015.9
20260508065203 8 224 3.2 9.7 0.00 0.00 0.00 86 1015.8
20260508064803 8 224 1.6 9.7 0.00 0.00 0.00 87 1015.8
20260508064403 8 224 1.6 6.4 0.00 0.00 0.00 87 1015.7
20260508064003 8 224 1.6 8.0 0.00 0.00 0.00 89 1015.7
20260508063818 8 224 1.6 8.0 0.00 0.00 0.00 89 1015.7
20260508063203 8 224 0.0 8.0 0.00 0.00 0.00 90 1015.6
20260508062803 7 224 0.0 8.0 0.00 0.00 0.00 91 1015.6
20260508062403 7 224 0.0 8.0 0.00 0.00 0.00 92 1015.5
20260508062217 7 224 0.0 8.0 0.00 0.00 0.00 92 1015.5
20260508061603 7 0 0.0 0.0 0.00 0.00 0.00 92 1015.4
20260508061418 7 0 0.0 0.0 0.00 0.00 0.00 92 1015.4
20260508061018 7 0 0.0 0.0 0.00 0.00 0.00 92 1015.5
20260508060618 7 0 0.0 0.0 0.00 0.00 0.00 92 1015.5
20260508060004 7 0 0.0 0.0 0.00 0.00 0.00 92 1015.4
20260508055603 7 0 0.0 0.0 0.00 0.00 0.00 92 1015.4
20260508055203 7 0 0.0 0.0 0.00 0.00 0.00 92 1015.4
20260508054803 7 0 0.0 0.0 0.00 0.00 0.00 92 1015.4
20260508054403 7 0 0.0 0.0 0.00 0.00 0.00 92 1015.3
20260508054003 7 0 0.0 0.0 0.00 0.00 0.00 92 1015.3
20260508053603 7 0 0.0 0.0 0.00 0.00 0.00 92 1015.3
20260508053203 7 224 0.0 1.6 0.00 0.00 0.00 92 1015.3
20260508052803 7 224 0.0 1.6 0.00 0.00 0.00 92 1015.3
20260508052618 7 224 0.0 1.6 0.00 0.00 0.00 92 1015.3
20260508052003 6 0 0.0 0.0 0.00 0.00 0.00 91 1015.1
20260508051603 6 0 0.0 0.0 0.00 0.00 0.00 91 1015.1
20260508051203 7 0 0.0 0.0 0.00 0.00 0.00 91 1015.0
20260508050803 7 0 0.0 0.0 0.00 0.00 0.00 91 1015.0
20260508050403 7 0 0.0 0.0 0.00 0.00 0.00 91 1015.0
20260508050003 7 0 0.0 0.0 0.00 0.00 0.00 90 1014.9
20260508045603 7 0 0.0 0.0 0.00 0.00 0.00 91 1014.9
20260508045203 7 0 0.0 0.0 0.00 0.00 0.00 90 1014.9
20260508044803 7 0 0.0 0.0 0.00 0.00 0.00 90 1014.9
20260508044403 7 0 0.0 0.0 0.00 0.00 0.00 90 1014.8
20260508044003 7 0 0.0 0.0 0.00 0.00 0.00 90 1014.9
20260508043817 7 0 0.0 0.0 0.00 0.00 0.00 90 1014.8
20260508043203 7 223 0.0 1.6 0.00 0.00 0.00 90 1014.8
20260508042803 7 223 0.0 1.6 0.00 0.00 0.00 90 1014.8
20260508042403 7 223 0.0 1.6 0.00 0.00 0.00 90 1014.8
20260508042003 7 223 0.0 1.6 0.00 0.00 0.00 90 1014.8
20260508041603 7 223 0.0 1.6 0.00 0.00 0.00 90 1014.8
20260508041203 7 223 0.0 4.8 0.00 0.00 0.00 90 1014.8
20260508040803 7 223 0.0 4.8 0.00 0.00 0.00 90 1014.8
20260508040403 7 223 0.0 4.8 0.00 0.00 0.00 90 1014.8
20260508040004 7 223 0.0 1.6 0.00 0.00 0.00 90 1014.7
20260508035603 7 223 0.0 1.6 0.00 0.00 0.00 90 1014.6
20260508035203 7 223 0.0 1.6 0.00 0.00 0.00 90 1014.6
20260508034803 7 223 0.0 1.6 0.00 0.00 0.00 90 1014.6
20260508034617 7 223 0.0 1.6 0.00 0.00 0.00 90 1014.6
20260508034003 7 223 0.0 1.6 0.00 0.00 0.00 90 1014.6
20260508033603 7 223 0.0 1.6 0.00 0.00 0.00 90 1014.6
20260508033203 7 223 0.0 1.6 0.00 0.00 0.00 90 1014.6
20260508032803 7 223 0.0 1.6 0.00 0.00 0.00 90 1014.6
20260508032403 7 223 0.0 1.6 0.00 0.00 0.00 90 1014.6
20260508032003 7 223 0.0 1.6 0.00 0.00 0.00 90 1014.6
20260508031603 7 223 0.0 1.6 0.00 0.00 0.00 90 1014.6
20260508031417 7 223 0.0 3.2 0.00 0.00 0.00 90 1014.6
20260508030803 7 223 0.0 3.2 0.00 0.00 0.00 90 1014.5
20260508030403 7 223 0.0 3.2 0.00 0.00 0.00 89 1014.6
20260508030004 7 0 0.0 0.0 0.00 0.00 0.00 89 1014.5
20260508025603 7 223 0.0 1.6 0.00 0.00 0.00 89 1014.6
20260508025203 7 223 0.0 3.2 0.00 0.00 0.00 89 1014.5
20260508024803 7 223 0.0 3.2 0.00 0.00 0.00 89 1014.5
20260508024403 7 223 0.0 4.8 0.00 0.00 0.00 88 1014.5
20260508024003 7 223 0.0 4.8 0.00 0.00 0.00 88 1014.6
20260508023603 7 223 0.0 4.8 0.00 0.00 0.00 88 1014.6
20260508023203 7 223 0.0 3.2 0.00 0.00 0.00 88 1014.6
20260508023017 7 223 0.0 3.2 0.00 0.00 0.00 88 1014.6
20260508022403 8 223 0.0 3.2 0.00 0.00 0.00 88 1014.7
20260508022003 8 223 0.0 1.6 0.00 0.00 0.00 87 1014.6
20260508021603 8 223 0.0 3.2 0.00 0.00 0.00 87 1014.6
20260508021203 8 223 0.0 3.2 0.00 0.00 0.00 87 1014.6
20260508020803 8 223 0.0 3.2 0.00 0.00 0.00 86 1014.5
20260508020403 8 223 0.0 4.8 0.00 0.00 0.00 86 1014.6
20260508020003 8 223 0.0 4.8 0.00 0.00 0.00 86 1014.5
20260508015603 8 223 0.0 6.4 0.00 0.00 0.00 86 1014.6
20260508015203 8 223 0.0 6.4 0.00 0.00 0.00 86 1014.6
20260508014803 8 223 0.0 6.4 0.00 0.00 0.00 86 1014.5
20260508014403 8 223 0.0 6.4 0.00 0.00 0.00 86 1014.6
20260508014003 8 223 0.0 6.4 0.00 0.00 0.00 85 1014.5
20260508013603 8 223 1.6 8.0 0.00 0.00 0.00 85 1014.5
20260508013203 8 223 0.0 8.0 0.00 0.00 0.00 85 1014.5
20260508012803 8 223 0.0 8.0 0.00 0.00 0.00 85 1014.6
20260508012403 8 223 0.0 4.8 0.00 0.00 0.00 85 1014.6
20260508012003 8 223 0.0 9.7 0.00 0.00 0.00 84 1014.6
20260508011817 8 223 0.0 9.7 0.00 0.00 0.00 84 1014.6
20260508011203 9 223 0.0 4.8 0.00 0.00 0.00 84 1014.6
20260508011018 9 223 0.0 3.2 0.00 0.00 0.00 84 1014.5
20260508010403 9 223 0.0 11.3 0.00 0.00 0.00 84 1014.6
20260508010003 9 223 0.0 11.3 0.00 0.00 0.00 84 1014.6
20260508005603 9 223 0.0 11.3 0.00 0.00 0.00 83 1014.6
20260508005203 9 223 1.6 8.0 0.00 0.00 0.00 83 1014.7
20260508004803 9 223 1.6 8.0 0.00 0.00 0.00 83 1014.7
20260508004403 9 223 1.6 9.7 0.00 0.00 0.00 83 1014.8
20260508004003 9 223 1.6 9.7 0.00 0.00 0.00 83 1014.8
20260508003603 9 223 1.6 8.0 0.00 0.00 0.00 83 1014.8
20260508003418 9 223 0.0 8.0 0.00 0.00 0.00 82 1014.9
20260508002803 10 223 1.6 6.4 0.00 0.00 0.00 82 1014.8
20260508002403 10 223 1.6 6.4 0.00 0.00 0.00 82 1014.8
20260508002003 10 223 1.6 9.7 0.00 0.00 0.00 81 1014.8
20260508001603 10 223 3.2 11.3 0.00 0.00 0.00 81 1014.8
20260508001203 10 223 3.2 11.3 0.00 0.00 0.00 80 1014.9
20260508000803 10 223 3.2 11.3 0.00 0.00 0.00 80 1014.9
20260508000405 10 223 1.6 11.3 0.00 0.00 0.00 80 1014.9
20260508000004 10 223 1.6 9.7 0.00 0.00 0.00 79 1014.9
20260507235605 10 223 1.6 9.7 0.00 0.00 0.00 79 1014.9
20260507235203 10 223 1.6 8.0 0.00 0.00 0.00 78 1014.9
20260507234803 10 223 1.6 8.0 0.00 0.00 0.00 78 1014.8
20260507234403 10 223 1.6 8.0 0.00 0.00 0.00 77 1014.7
20260507234003 10 223 1.6 11.3 0.00 0.00 0.00 77 1014.7
20260507233817 10 223 1.6 11.3 0.00 0.00 0.00 77 1014.7
20260507233203 10 223 1.6 11.3 0.00 0.00 0.00 76 1014.6
20260507233017 10 223 1.6 11.3 0.00 0.00 0.00 76 1014.6
20260507232403 10 223 3.2 9.7 0.00 0.00 0.00 76 1014.6
20260507232003 10 223 3.2 16.1 0.00 0.00 0.00 76 1014.6
20260507231603 10 222 3.2 16.1 0.00 0.00 0.00 75 1014.6
20260507231203 10 221 3.2 16.1 0.00 0.00 0.00 75 1014.5
20260507230803 10 221 3.2 16.1 0.00 0.00 0.00 75 1014.5
20260507230403 10 221 1.6 16.1 0.00 0.00 0.00 75 1014.5
20260507230218 10 221 1.6 11.3 0.00 0.00 0.00 76 1014.6
20260507225603 10 221 1.6 11.3 0.00 0.00 0.00 76 1014.6
20260507225203 10 221 1.6 9.7 0.00 0.00 0.00 76 1014.7
20260507225017 10 221 1.6 9.7 0.00 0.00 0.00 76 1014.6
20260507224618 10 221 1.6 8.0 0.00 0.00 0.00 76 1014.6
20260507224003 10 221 1.6 8.0 0.00 0.00 0.00 76 1014.6
20260507223603 10 221 1.6 8.0 0.00 0.00 0.00 77 1014.6
20260507223203 10 221 1.6 8.0 0.00 0.00 0.00 77 1014.6
20260507222803 10 221 0.0 4.8 0.00 0.00 0.00 77 1014.6
20260507222403 10 221 1.6 6.4 0.00 0.00 0.00 77 1014.6
20260507222003 10 221 1.6 6.4 0.00 0.00 0.00 77 1014.6
20260507221603 10 221 0.0 6.4 0.00 0.00 0.00 77 1014.6
20260507221203 10 221 1.6 3.2 0.00 0.00 0.00 77 1014.6
20260507220803 10 221 1.6 11.3 0.00 0.00 0.00 77 1014.7
20260507220617 10 221 1.6 11.3 0.00 0.00 0.00 77 1014.6
20260507220003 10 221 1.6 9.7 0.00 0.00 0.00 77 1014.6
20260507215818 10 221 1.6 9.7 0.00 0.00 0.00 77 1014.6
20260507215203 10 221 1.6 9.7 0.00 0.00 0.00 76 1014.7
20260507214803 10 221 1.6 8.0 0.00 0.00 0.00 76 1014.8
20260507214403 10 221 1.6 8.0 0.00 0.00 0.00 76 1014.8
20260507214218 10 221 1.6 8.0 0.00 0.00 0.00 76 1014.7
20260507213603 10 221 0.0 4.8 0.00 0.00 0.00 75 1014.7
20260507213203 10 221 0.0 4.8 0.00 0.00 0.00 75 1014.7
20260507212803 10 221 1.6 8.0 0.00 0.00 0.00 74 1014.7
20260507212403 10 221 0.0 8.0 0.00 0.00 0.00 74 1014.7
20260507212003 10 221 0.0 3.2 0.00 0.00 0.00 74 1014.6
20260507211818 10 221 0.0 4.8 0.00 0.00 0.00 74 1014.6
20260507211203 10 221 0.0 9.7 0.00 0.00 0.00 73 1014.6
20260507210803 11 221 1.6 9.7 0.00 0.00 0.00 73 1014.6
20260507210403 11 221 1.6 9.7 0.00 0.00 0.00 73 1014.5
20260507210003 11 221 1.6 9.7 0.00 0.00 0.00 73 1014.5
20260507205603 11 221 1.6 9.7 0.00 0.00 0.00 72 1014.5
20260507205203 11 221 0.0 9.7 0.00 0.00 0.00 72 1014.4
20260507204803 11 221 0.0 9.7 0.00 0.00 0.00 72 1014.3
20260507204617 11 221 0.0 3.2 0.00 0.00 0.00 72 1014.3
20260507204003 11 221 0.0 4.8 0.00 0.00 0.00 72 1014.3
20260507203818 11 221 0.0 4.8 0.00 0.00 0.00 71 1014.3
20260507203203 11 221 0.0 4.8 0.00 0.00 0.00 71 1014.3
20260507202803 11 221 0.0 4.8 0.00 0.00 0.00 71 1014.2
20260507202403 11 221 0.0 4.8 0.00 0.00 0.00 71 1014.3
20260507202003 11 221 1.6 9.7 0.00 0.00 0.00 71 1014.2
20260507201603 11 221 1.6 9.7 0.00 0.00 0.00 71 1014.3
20260507201203 11 221 0.0 4.8 0.00 0.00 0.00 71 1014.2
20260507200803 11 221 0.0 4.8 0.00 0.00 0.00 71 1014.2
20260507200403 11 221 0.0 4.8 0.00 0.00 0.00 71 1014.1
20260507200003 11 221 0.0 8.0 0.00 0.00 0.00 71 1014.2
20260507195817 11 221 0.0 8.0 0.00 0.00 0.00 71 1014.1
20260507195418 11 221 0.0 8.0 0.00 0.00 0.00 71 1014.1
20260507194803 11 221 0.0 4.8 0.00 0.00 0.00 71 1014.1
20260507194403 11 221 0.0 4.8 0.00 0.00 0.00 72 1014.1
20260507194217 11 221 0.0 4.8 0.00 0.00 0.00 71 1014.1
20260507193603 11 221 0.0 3.2 0.00 0.00 0.00 71 1014.1
20260507193203 11 221 0.0 3.2 0.00 0.00 0.00 71 1014.0
20260507192803 11 221 0.0 3.2 0.00 0.00 0.00 71 1014.0
20260507192403 11 221 0.0 1.6 0.00 0.00 0.00 72 1014.0
20260507192003 11 221 0.0 6.4 0.00 0.00 0.00 71 1014.0
20260507191603 11 221 0.0 6.4 0.00 0.00 0.00 71 1014.0
20260507191203 11 221 0.0 3.2 0.00 0.00 0.00 71 1013.9
20260507190803 11 221 0.0 3.2 0.00 0.00 0.00 71 1013.9
20260507190403 11 221 0.0 3.2 0.00 0.00 0.00 71 1013.9
20260507190004 11 221 0.0 3.2 0.00 0.00 0.00 71 1013.9
20260507185603 11 221 0.0 8.0 0.00 0.00 0.00 71 1013.9
20260507185203 11 221 0.0 8.0 0.00 0.00 0.00 71 1013.8
20260507184803 11 221 0.0 4.8 0.00 0.00 0.00 71 1013.9
20260507184618 11 221 0.0 4.8 0.00 0.00 0.00 71 1013.8
20260507184003 12 221 0.0 3.2 0.00 0.00 0.00 71 1013.9
20260507183603 12 221 0.0 3.2 0.00 0.00 0.00 71 1013.9
20260507183417 12 221 0.0 3.2 0.00 0.00 0.00 70 1013.9
20260507182803 12 221 0.0 11.3 0.00 0.00 0.00 70 1013.9
20260507182618 12 221 0.0 11.3 0.00 0.00 0.00 70 1013.9
20260507182003 12 221 1.6 12.9 0.00 0.00 0.00 70 1013.9
20260507181603 12 221 0.0 12.9 0.00 0.00 0.00 70 1013.8
20260507181203 12 221 1.6 12.9 0.00 0.00 0.00 70 1013.8
20260507180803 12 221 1.6 9.7 0.00 0.00 0.00 70 1013.8
20260507180403 12 221 1.6 9.7 0.00 0.00 0.00 70 1013.8
20260507180004 12 221 0.0 6.4 0.00 0.00 0.00 69 1013.8
20260507175603 12 221 1.6 11.3 0.00 0.00 0.00 70 1013.8
20260507175417 12 222 1.6 11.3 0.00 0.00 0.00 69 1013.8
20260507174803 12 223 3.2 11.3 0.00 0.00 0.00 68 1013.8
20260507174403 12 223 3.2 14.5 0.00 0.00 0.00 68 1013.8
20260507174003 12 223 3.2 14.5 0.00 0.00 0.00 68 1013.8
20260507173603 12 223 1.6 14.5 0.00 0.00 0.00 68 1013.8
20260507173203 12 223 1.6 9.7 0.00 0.00 0.00 69 1013.8
20260507172803 12 223 1.6 11.3 0.00 0.00 0.00 69 1013.8
20260507172618 12 223 3.2 11.3 0.00 0.00 0.00 68 1013.8
20260507172003 12 223 3.2 11.3 0.00 0.00 0.00 68 1013.9
20260507171603 12 223 3.2 12.9 0.00 0.00 0.00 68 1013.8
20260507171203 12 223 4.8 14.5 0.00 0.00 0.00 68 1013.9
20260507170803 12 223 3.2 14.5 0.00 0.00 0.00 68 1014.0
20260507170617 12 223 3.2 14.5 0.00 0.00 0.00 68 1014.0
20260507170003 12 223 1.6 12.9 0.00 0.00 0.00 67 1014.0
20260507165818 12 223 1.6 12.9 0.00 0.00 0.00 68 1014.0
20260507165203 12 223 1.6 12.9 0.00 0.00 0.00 69 1014.1
20260507164803 12 223 1.6 11.3 0.00 0.00 0.00 68 1014.1
20260507164403 12 223 1.6 11.3 0.00 0.00 0.00 69 1014.1
20260507164003 12 223 3.2 12.9 0.00 0.00 0.00 68 1014.2
20260507163603 12 223 3.2 12.9 0.00 0.00 0.00 69 1014.1
20260507163203 12 223 3.2 11.3 0.00 0.00 0.00 69 1014.2
20260507162803 11 223 3.2 11.3 0.00 0.00 0.00 69 1014.2
20260507162403 11 223 3.2 11.3 0.00 0.00 0.00 69 1014.2
20260507162003 11 223 3.2 12.9 0.00 0.00 0.00 70 1014.2
20260507161603 11 224 3.2 12.9 0.00 0.00 0.00 69 1014.2
20260507161419 11 224 3.2 12.9 0.00 0.00 0.00 70 1014.2
20260507160803 11 224 3.2 12.9 0.00 0.00 0.00 70 1014.2
20260507160403 11 224 3.2 12.9 0.00 0.00 0.00 70 1014.3
20260507160003 11 224 3.2 12.9 0.00 0.00 0.00 70 1014.3
20260507155603 11 225 3.2 12.9 0.00 0.00 0.00 69 1014.3
20260507155203 11 225 3.2 11.3 0.00 0.00 0.00 70 1014.3
20260507154803 11 225 3.2 12.9 0.00 0.00 0.00 70 1014.3
20260507154617 11 225 3.2 12.9 0.00 0.00 0.00 70 1014.3
20260507154003 11 225 3.2 11.3 0.00 0.00 0.00 69 1014.3
20260507153603 11 225 1.6 11.3 0.00 0.00 0.00 69 1014.3
20260507153203 11 225 1.6 11.3 0.00 0.00 0.00 69 1014.3
20260507152803 11 225 1.6 8.0 0.00 0.00 0.00 69 1014.3
20260507152403 11 225 1.6 9.7 0.00 0.00 0.00 68 1014.4
20260507152217 11 225 1.6 9.7 0.00 0.00 0.00 68 1014.4
20260507151603 11 223 1.6 14.5 0.00 0.00 0.00 67 1014.4
20260507151418 11 222 1.6 14.5 0.00 0.00 0.00 67 1014.4
20260507150803 12 219 1.6 14.5 0.00 0.00 0.00 67 1014.5
20260507150403 12 219 3.2 9.7 0.00 0.00 0.00 67 1014.4
20260507150004 12 219 3.2 11.3 0.00 0.00 0.00 67 1014.4
20260507145603 12 219 4.8 19.3 0.00 0.00 0.00 67 1014.4
20260507145203 12 218 4.8 19.3 0.00 0.00 0.00 67 1014.4
20260507144803 12 218 6.4 20.9 0.00 0.00 0.00 66 1014.3
20260507144403 12 218 6.4 20.9 0.00 0.00 0.00 67 1014.4
20260507144003 12 219 4.8 20.9 0.00 0.00 0.00 65 1014.4
20260507143603 12 220 4.8 20.9 0.00 0.00 0.00 65 1014.4
20260507143203 12 221 4.8 16.1 0.00 0.00 0.00 67 1014.5
20260507142803 12 220 3.2 19.3 0.00 0.00 0.00 65 1014.4
20260507142403 12 219 4.8 19.3 0.00 0.00 0.00 66 1014.5
20260507142003 12 219 4.8 16.1 0.00 0.00 0.00 65 1014.5
20260507141603 12 219 6.4 20.9 0.00 0.00 0.00 65 1014.5
20260507141203 12 220 4.8 20.9 0.00 0.00 0.00 65 1014.6
20260507141018 12 220 4.8 20.9 0.00 0.00 0.00 65 1014.5
20260507140403 12 221 4.8 19.3 0.00 0.00 0.00 66 1014.5
20260507140003 12 220 6.4 30.6 0.00 0.00 0.00 67 1014.5
20260507135817 12 218 6.4 30.6 0.00 0.00 0.00 67 1014.5
20260507135203 12 210 4.8 29.0 0.00 0.00 0.00 66 1014.5
20260507135018 12 209 4.8 17.7 0.00 0.00 0.00 67 1014.5
20260507134618 12 209 4.8 17.7 0.00 0.00 0.00 68 1014.5
20260507134003 12 208 6.4 20.9 0.00 0.00 0.00 68 1014.5
20260507133603 12 209 6.4 20.9 0.00 0.00 0.00 67 1014.5
20260507133203 12 210 4.8 17.7 0.00 0.00 0.00 67 1014.4
20260507133018 12 210 4.8 17.7 0.00 0.00 0.00 68 1014.5
20260507132403 12 210 3.2 17.7 0.00 0.00 0.00 69 1014.5
20260507132003 12 209 3.2 20.9 0.00 0.00 0.00 70 1014.4
20260507131817 12 209 4.8 20.9 0.00 0.00 0.00 69 1014.4
20260507131203 12 206 4.8 20.9 0.00 0.00 0.00 68 1014.6
20260507130803 12 204 3.2 17.7 0.00 0.00 0.00 67 1014.6
20260507130618 12 204 3.2 16.1 0.00 0.00 0.00 67 1014.6
20260507130003 12 203 3.2 11.3 0.00 0.00 0.00 67 1014.5
20260507125817 12 204 3.2 12.9 0.00 0.00 0.00 67 1014.5
20260507125203 12 207 3.2 12.9 0.00 0.00 0.00 66 1014.6
20260507124803 12 208 3.2 11.3 0.00 0.00 0.00 66 1014.6
20260507124403 12 209 4.8 25.7 0.00 0.00 0.00 67 1014.6
20260507124003 12 210 4.8 25.7 0.00 0.00 0.00 66 1014.6
20260507123603 12 212 3.2 25.7 0.00 0.00 0.00 65 1014.6
20260507123203 12 212 4.8 12.9 0.00 0.00 0.00 66 1014.5
20260507122803 12 212 4.8 12.9 0.00 0.00 0.00 66 1014.6